Simultaneous Nadir Overpasses (SNOs) Predictions

Prediction of SNOs between GOES-15 and TERRA Satellite Orbit:

Table of predicted SNOs for the next 14.0 days since TLE Epoch: 8/11/2012
Index Date Time (GOES-15) GOES-15 Lat,Lon TERRA Lat,Lon Distance(km) Time Diff (sec)
1 08/11/2012 19:15:10 -0.24,-134.97 -1.07,-131.18 431.18 80
2 08/12/2012 07:33:55 0.27,-134.88 -0.04,-136.37 170.01 80
3 08/14/2012 07:24:28 0.27,-134.81 0.59,-133.44 156.60 80
4 08/14/2012 19:43:05 -0.30,-134.86 0.50,-138.60 425.90 80
5 08/16/2012 07:12:22 0.27,-134.73 1.14,-130.49 481.52 80
6 08/16/2012 19:31:01 -0.29,-134.78 -0.13,-135.68 101.24 80
7 08/18/2012 19:21:39 -0.29,-134.70 -0.74,-132.76 221.76 80
8 08/19/2012 07:40:26 0.32,-134.62 -0.37,-137.96 379.78 80
9 08/21/2012 07:28:26 0.32,-134.53 0.18,-135.04 59.06 80
10 08/23/2012 07:19:09 0.31,-134.43 0.77,-132.14 259.91 80
11 08/23/2012 19:37:50 -0.34,-134.47 0.26,-137.33 325.53 80




NCC Satellite Simultaneous Nadir Overpasses (SNOs) Prediction Service
